User: anonymous   Login
Location: Muenchen
(48.1800°N, 11.5800°E)
Time: 08:45:20
(UTC+02:00)
Language:

Sich 1 Rocket - Orbit

View from above orbital plane
View from above orbital plane
View from above satellite
View from above satellite

Ground track
Ground track

The orbit data is extracted from the following two-line orbital elements,

1 23659U 95046C   16236.52850830  .00000110  00000-0  11827-4 0  9993
2 23659  82.5286 221.6219 0026989 125.6399  13.8772 14.78198595130571
Epoch (UTC): 23 August 2016 12:41:03
Eccentricity: 0.0026989
inclination: 82.5286°
perigee height: 616 km
apogee height: 654 km
right ascension of ascending node: 221.6219°
argument of perigee: 125.6399°
revolutions per day: 14.78198595
mean anomaly at epoch: 13.8772°
orbit number at epoch: 13057

The dashed part of the orbit path shows where the satellite is in the earth's shadow,  

DLR